Satellite: NOAA-19
Catalog number: 33591
Epoch time:      12025.72338195
Element set:    0240
Inclination:      098.8520 deg
RA of node:       327.3939 deg
Eccentricity:    0.0014850
Arg of perigee:   067.7938 deg
Mean anomaly:     292.4807 deg
Mean motion:   14.11285542 rev/day
Decay rate:       2.44e-06 rev/day^2
Epoch rev:           15277
Checksum:              318

/EX
SB KEPS @ AMSAT  $ORB12027.M
Orbital Elements  12027.MISC

HR AMSAT ORBITAL ELEMENTS FOR MANNED AND MISCELLANEOUS SATELLITES
FROM WA5QGD FORT WORTH,TX January 27, 2012
Send SUBSCRIBE KEPS/UNSUBSCRIBE KEPS to majordomo@amsat.org only
BID: ORB12027.M
TO ALL RADIO AMATEURS BT

Satellite: HUBBLE
Catalog number: 20580
Epoch time:      12026.22940686
Element set:     930
Inclination:      028.4705 deg
RA of node:       358.8017 deg
Eccentricity:    0.0003110
Arg of perigee:   335.4313 deg
Mean anomaly:     024.6203 deg
Mean motion:   15.02133642 rev/day
Decay rate:      2.061e-05 rev/day^2
Epoch rev:           99321
Checksum:              245

Satellite: ISS
Catalog number: 25544
Epoch time:      12026.80971648
Element set:     895
Inclination:      051.6430 deg
RA of node:       116.2580 deg
Eccentricity:    0.0021930
Arg of perigee:   327.1352 deg
Mean anomaly:     128.5455 deg
Mean motion:   15.59095309 rev/day
Decay rate:     2.2510e-04 rev/day^2
Epoch rev:           75581
Checksum:              295

Satellite: CO-58
Catalog number: 28895
Epoch time:      12025.83215204
Element set:    0084
Inclination:      097.9372 deg
RA of node:       258.2410 deg
Eccentricity:    0.0016771
Arg of perigee:   241.0415 deg
Mean anomaly:     118.9086 deg
Mean motion:   14.60460565 rev/day
Decay rate:      1.027e-05 rev/day^2
Epoch rev:           33273
Checksum:              297

Satellite: FALCON
Catalog number: 30776
Epoch time:      12026.55291855
Element set:     268
Inclination:      035.4330 deg
RA of node:       067.3189 deg
Eccentricity:    0.0002077
Arg of perigee:   228.6806 deg
Mean anomaly:     131.3732 deg
Mean motion:   15.06479606 rev/day
Decay rate:      4.227e-05 rev/day^2
Epoch rev:           26872
Checksum:              302

Satellite: MAST
Catalog number: 31126
Epoch time:      12025.95516102
Element set:    0372
Inclination:      097.8806 deg
RA of node:       045.4100 deg
Eccentricity:    0.0093518
Arg of perigee:   196.5595 deg
Mean anomaly:     163.2560 deg
Mean motion:   14.54017892 rev/day
Decay rate:       6.89e-06 rev/day^2
Epoch rev:           25345
Checksum:              297

Satellite: CAPE1
Catalog number: 31130
Epoch time:      12026.55727340
Element set:     379
Inclination:      097.8855 deg
RA of node:       042.4636 deg
Eccentricity:    0.0101613
Arg of perigee:   206.8386 deg
Mean anomaly:     152.7539 deg
Mean motion:   14.52749992 rev/day
Decay rate:       8.20e-06 rev/day^2
Epoch rev:           25306
Checksum:              303

Satellite: COMPASS
Catalog number: 32787
Epoch time:      12025.69261347
Element set:    0206
Inclination:      097.8217 deg
RA of node:       090.1343 deg
Eccentricity:    0.0015750
Arg of perigee:   166.5962 deg
Mean anomaly:     193.5708 deg
Mean motion:   14.83445773 rev/day
Decay rate:      3.189e-05 rev/day^2
Epoch rev:           20253
Checksum:              310

Satellite: AAUSAT2
Catalog number: 32788
Epoch time:      12025.82591828
Element set:    0198
Inclination:      097.8223 deg
RA of node:       090.5708 deg
Eccentricity:    0.0016172
Arg of perigee:   165.8129 deg
Mean anomaly:     194.3575 deg
Mean motion:   14.83718961 rev/day
Decay rate:      3.256e-05 rev/day^2
Epoch rev:           20257
Checksum:              332

Satellite: DO-64
Catalog number: 32789
Epoch time:      12025.86327804
Element set:    0215
Inclination:      097.8316 deg
RA of node:       092.1400 deg
Eccentricity:    0.0015217
Arg of perigee:   163.7984 deg
Mean anomaly:     196.3700 deg
Mean motion:   14.84822768 rev/day
Decay rate:      4.692e-05 rev/day^2
Epoch rev:           20260
Checksum:              315

Satellite: CO-66
Catalog number: 32791
Epoch time:      12025.63076655
Element set:    0202
Inclination:      097.8212 deg
RA of node:       089.9158 deg
Eccentricity:    0.0015897
Arg of perigee:   166.3371 deg
Mean anomaly:     193.8272 deg
Mean motion:   14.82960406 rev/day
Decay rate:      2.409e-05 rev/day^2
Epoch rev:           20246
Checksum:              322

Satellite: RS-30
Catalog number: 32953
Epoch time:      12026.50359182
Element set:     467
Inclination:      082.4998 deg
RA of node:       023.8619 deg
Eccentricity:    0.0017425
Arg of perigee:   259.6894 deg
Mean anomaly:     100.2229 deg
Mean motion:   12.43020353 rev/day
Decay rate:        1.0e-07 rev/day^2
Epoch rev:           16683
Checksum:              292

Satellite: TACSAT-3
Catalog number: 35001
Epoch time:      12026.81591419
Element set:     845
Inclination:      040.4479 deg
RA of node:       239.7374 deg
Eccentricity:    0.0005107
Arg of perigee:   319.9121 deg
Mean anomaly:     040.1225 deg
Mean motion:   15.70512357 rev/day
Decay rate:     9.3088e-04 rev/day^2
Epoch rev:           15193
Checksum:              285

